STARLINK-4257 (53184 NORAD) Tracking and Keplerian Element Data

This shows tracking and keplerian element data for the satellite.

Feedback or suggestion? Click here.




ElementValue
Catalog53184
NameSTARLINK-4257
Epoch Orbit1193
Epoch Day270.25001157
Epoch Year2022
RAAN52.1824
Inclination53.215
Eccentricity0.0004018
Argument of Perigee5.6603
Mean Anonmoly113.8309
Mean Motion15.73205567
Decay Rate0.00024711
L11 53184U 22083BE 22270.25001157 .00024711 00000+0 17988-3 0 9990
L22 53184 53.2150 52.1824 0004018 5.6603 113.8309 15.73205567 11934

Live tracking and technical data element details for STARLINK-4257 (NORAD 53184). STARLINK-4257 can be tracked NOW for your location showing map with azimuth and elevation plus other details from your city location.

Track the satellite on the map from your city or location and see movement details for azimuth, elevation, latitude, longitude, range, height, and movement on the map or in text.







IsCatalogInMostPopularTable: catalog: 53184, numindb: 7
Update: records affected: 1



GetName: 53184 STARLINK-4257

Hit Count: updated at: Wed, 28 Sep 2022 22:33:29 GMT